Other Public Products
Issued by NWS Grand Forks, ND

Home | Current Version | Previous Version | Graphics & Text | Print | Product List | Glossary On
Versions: 1 2 3 4 5 6 7 8 9 10 11 12 13 14 15 16 17 18 19 20 21 22 23 24 25 26 27 28 29 30 31 32 33 34 35 36 37 38 39 40 41 42 43 44 45 46 47 48 49 50
739
FPUS83 KFGF 081110
OPUFGF
PRAIRIE TO PINES WEATHER ROUNDUP
NATIONAL WEATHER SERVICE EASTERN NORTH DAKOTA/GRAND FORKS ND
500 AM CST MON FEB 08 2016

 **SATELLITE DATA USED TO AUGMENT SKY COVER AT AUTOMATED STATIONS**
 *****  WEATHER ACROSS EASTERN NORTH DAKOTA  *****

CITY           SKY/WX    TMP DP  RH WIND       PRES   REMARKS
GRAND FORKS    LGT SNOW  14   8  77 N28G35    30.12R BLWGSNOWWCI  -6
GRAND FORKS AF LGT SNOW  14   9  79 N24G31    30.14R WCI  -5
GRAND CITY NWS   N/A     12 N/A N/A VRB20       N/A  WCI  -6
BUXTON           N/A     -3  10 100 N21G33      N/A  WCI -26
DEVILS LAKE    FLURRIES  17  12  80 N14       30.15R WCI   3
FARGO          HAZE      14   9  80 N35G44    30.10R VSB 1/4 WCI  -8
WAHPETON ARPT  CLOUDY    14  10  85 N25G37    30.07R VSB 1   WCI  -5
$$

 *****  WEATHER ACROSS CENTRAL AND WESTERN NORTH DAKOTA  *****

CITY           SKY/WX    TMP DP  RH WIND       PRES   REMARKS
JAMESTOWN      CLOUDY    20  13  74 N21       30.12R WCI   4
BISMARCK       CLEAR     28  17  63 NW21G32   30.24R WCI  15
MINOT          CLEAR     25  15  66 NW17G29   30.23R WCI  12
MINOT AFB      CLEAR     22  18  84 NW16      30.23R WCI   9
GARRISON         N/A     21  17  84 NW17      30.24R WCI   7
WILLISTON      CLEAR     24  16  71 NW17      30.33S WCI  11
DICKINSON      CLEAR     18  13  80 W15       30.28R WCI   4
HETTINGER      CLEAR     20  14  77 NW13      30.31R WCI   7
$$

 *****  OTHER OBSERVATIONS NORTHEAST NORTH DAKOTA  *****

CITY           SKY/WX    TMP DP  RH WIND       PRES   REMARKS
WALHALLA       FAIR      14  14 100 N20G26    30.17R FOG     WCI  -3
LANGDON        LGT SNOW  14  10  85 N30G38    30.10R WCI  -7
CAVALIER       CLOUDY    14   9  79 N18G25    30.16R WCI  -3
GRAFTON        CLOUDY    12   9  85 N23G33    30.16R FOG     WCI  -7
CANDO          NOT AVBL
FORT TOTTEN      N/A     17  13  83 N7        29.95S WCI   8
ROLLA          FLURRIES  16  10  79 N26G35    30.14R WCI  -3
RUGBY          FAIR      18  14  86 NW17      30.18S WCI   2
 ***** THE ABOVE OBSERVATIONS ARE NON NWS ARE NOT QUALITY
        CONTROLLED AND MAY MIS-REPORT RAIN FOR SNOW...
$$

 *****  OTHER OBSERVATIONS SOUTHEAST NORTH DAKOTA *****

CITY           SKY/WX    TMP DP  RH WIND       PRES   REMARKS
COOPERSTOWN    NOT AVBL
VALLEY CITY    FLURRIES  18  14  86 N20G29    30.12R WCI   1
OAKES          CLOUDY    19  14  79 N30G38    30.10R WCI   0
GWINNER        CLOUDY    21  14  73 N23G30    30.10R WCI   5
SHEYENNE NWR     N/A     16  10  75 N14       29.95S WCI   2
BUFFALO          N/A     16   9  75 N22         N/A  WCI  -2
WYNDMERE         N/A     16  12  86 N23         N/A  WCI  -2
 ***** THE ABOVE OBSERVATIONS ARE NON NWS ARE NOT QUALITY
       CONTROLLED AND MAY MIS-REPORT RAIN FOR SNOW...
$$

  *****  WEATHER ACROSS NORTHERN MINNESOTA  *****

CITY           SKY/WX    TMP DP  RH WIND       PRES   REMARKS
FLAG ISLAND    CLOUDY     1  -2  85 NW22      29.98R WCI -21
WARROAD        MOCLDY     3  -2  78 NW20      30.01R WCI -18
ROSEAU         FLURRIES   7   0  72 N20       30.03R WCI -13
HALLOCK        CLOUDY    10   7  85 N25G35    30.11R FOG     WCI -10
THF RVR FALLS  NOT AVBL
HALSTAD        NOT AVBL
FOSSTON        LGT SNOW   3   0  85 N24G32    30.02R WCI -20
BAUDETTE       LGT SNOW   3  -3  76 NW20      29.95R WCI -18
WASKISH        FLURRIES   3   0  85 NW13G20   29.95R WCI -14
CROOKSTON      LGT SNOW  10   7  85 N24       30.10R WCI -10
$$
  *****  WEATHER ACROSS CENTRAL AND WEST MINNESOTA  *****

CITY           SKY/WX    TMP DP  RH WIND       PRES   REMARKS
BEMIDJI        FLURRIES   4  -1  79 NW17G25   29.94R WCI -16
PARK RAPIDS    LGT SNOW   6  -1  73 N21G28    29.92R WCI -14
WADENA         LGT SNOW   7   1  78 NW17G25   29.93R WCI -12
DETROIT LAKES  LGT SNOW   9   5  85 N30G45    29.99R WCI -14
MOORHEAD       CLOUDY    10   9  92 N28       30.09R WCI -11
FERGUS FALLS   LGT SNOW  10   7  85 N29G48    30.04R WCI -11
ELBOW LAKE     FLURRIES  10   5  80 NW28G36   29.99R WCI -11
MORRIS MN      SNOW      12   9  85 N31G40    29.98R VSB 1/2 WCI -10
STAPLES        LGT SNOW   5   0  78 NW13G22   29.91R WCI -12
WHEATON        CLOUDY    16  12  86 NW25G35   30.07R WCI  -3
$$
  *****  WEATHER ELSEWHERE ACROSS MINNESOTA  *****

CITY           SKY/WX    TMP DP  RH WIND       PRES   REMARKS
DULUTH         LGT SNOW  10   4  76 NW13G28   29.74R BLWGSNOWWCI  -5
INTRNTL FALLS  LGT SNOW   7   1  76 NW15      29.89R WCI -10
ELY            LGT SNOW  10   7  85 N6        29.76R WCI   1
CLOQUET        FLURRIES  10   3  72 NW13G23   29.77R WCI  -5
BRAINERD       LGT SNOW   6   0  76 NW21G28   29.89R WCI -14
HIBBING        LGT SNOW   5   1  83 NW21      29.81R FOG     WCI -16
ALEXANDRIA     LGT SNOW   8   2  76 N24G35    29.93R WCI -13
SAINT CLOUD    LGT SNOW   9   3  77 NW20G30   29.87R WCI -10
MINNEAPOLIS    FLURRIES  14   6  70 NW21G26   29.83R WCI  -4
$$

  *****  WEATHER ACROSS SOUTH DAKOTA  *****

CITY           SKY/WX    TMP DP  RH WIND       PRES   REMARKS
SIOUX FALLS    LGT SNOW  21  16  81 N24G32    30.01R BLWGSNOWWCI   4
BROOKINGS      LGT SNOW  18  12  79 N28G36    29.99R FOG     WCI  -1
WATERTOWN      FLURRIES  17  11  77 N23       30.01R WCI  -1
HURON          CLOUDY    25  19  78 N24G32    30.10R WCI   9
SISSETON         N/A     17  12  80 N31G39    30.05R WCI  -3
ABERDEEN       FLURRIES  23  17  78 N18       30.13R WCI   9
MITCHELL       CLOUDY    27  19  72 NW28G39   30.10R WCI  11
PIERRE         CLEAR     26  16  65 NW25G31   30.22R WCI  11
MOBRIDGE       CLEAR     27  16  63 NW24G32   30.17R WCI  12
RAPID CITY     CLEAR     29   9  43 NW29G36   30.31R WCI  14
$$

  *****  SOME WEATHER IN NEARBY STATES *****

CITY           SKY/WX    TMP DP  RH WIND       PRES   REMARKS
GLASGOW MT     CLOUDY    20  14  77 N6        30.40S WCI  12
GREAT FALLS MT CLOUDY    36  21  54 SW15      30.39F
CHEYENNE WY    CLOUDY    34  17  50 NW20G33   30.30S WCI  23
SCOTTSBLUFF NE CLEAR     22  11  62 NW13      30.36R WCI  10
OMAHA NE       FLURRIES  29  21  72 NW23G38   29.99S WCI  15
DES MOINES IA  LGT SNOW  20  12  71 N24G40    29.87S BLWGSNOWWCI   3
DAVENPORT IA   LGT SNOW  22  17  81 NW21G32   29.72S WCI   6
CHICAGO IL     FLURRIES  31  28  89 W7        29.60F WCI  24
EAU CLAIRE WI  LGT SNOW  17  10  74 NW13G21   29.71R WCI   4
LA CROSSE WI   LGT SNOW  18  13  80 NW15      29.71S WCI   4
$$

  *****  SOME NATIONAL WEATHER *****

CITY           SKY/WX    TMP DP  RH WIND       PRES   REMARKS
LA GUARDIA NY  CLOUDY    39  28  64 NE20G30   29.76R
RALEIGH NC     CLEAR     29  23  78 CALM      29.83R
ATLANTA GA     MOCLDY    37  22  54 SW7       29.85F
NEW ORLEANS LA CLEAR     46  39  76 SW8       30.09S
OKLAHOMA CITY  PTCLDY    38  16  40 NW20G26   30.27S
ALBUQUERQUE NM CLOUDY    31  19  61 W5        30.42R
SALT LAKE CITY PTCLDY    26  21  81 S5        30.66S WCI  20
LOS ANGELES CA CLEAR     57  33  40 CALM      30.11F
BOISE ID       CLEAR     32  29  88 SE6       30.67S
SEATTLE WA     CLEAR     41  37  86 N9        30.48F
$$

*** WEATHER ACROSS MANITOBA...SASKATCHEWAN AND ONTARIO ***
                ***ONTARIO***

CITY           SKY/WX    TMP DP  RH WIND       PRES   REMARKS
GERALDTON      FLURRIES  -4  -9  77 NE9       29.76R WCI -20
THUNDER BAY    FLURRIES   5   0  78 N10       29.76R WCI -10
SIOUX LOOKOUT  FLURRIES   1  -4  78 N7        29.86R WCI -11
TORONTO        MOCLDY    36  32  87 E8        29.70S
BIG TROUT LK   MOCLDY   -18 -24  76 NE5       30.08R WCI -31
PICKLE LAKE    FLURRIES  -9 -17  70 NE6       29.89  WCI -23
DRYDEN         FLURRIES   3   0  85 NW5       29.86R WCI  -6
KENORA         FLURRIES   0  -4  85 N14G23    29.94R WCI -19
$$
                *** MANITOBA***

CITY           SKY/WX    TMP DP  RH WIND       PRES   REMARKS
BRANDON        PTCLDY     9   5  85 NW9       30.20R WCI  -5
DAUPHIN        CLOUDY    16   9  73 N14       30.25R WCI   1
ISLAND LAKE    NOT AVBL
PILOT MOUND      N/A     14  10  85 N14G20      N/A  WCI  -1
THE PAS        CLOUDY     9   0  66 NW12G21   30.28S WCI  -6
THOMPSON       NOT AVBL
WINNIPEG       LGT SNOW   9   3  78 N21G29    30.16R BLWGSNOWWCI -11
LYNN LAKE      CLOUDY    -8 -13  77 NW8       30.24S WCI -23
CHURCHILL      FLURRIES  -6 -11  77 W8        30.18S WCI -21
GILLAM         FLURRIES  -4  -9  77 NW6       30.16F WCI -16
$$
                ***SASKATCHEWAN***

CITY           SKY/WX    TMP DP  RH WIND       PRES   REMARKS
ESTEVAN        NOT AVBL
KINDERSLEY     CLOUDY    19  14  79 S6        30.35F WCI  11
LLOYDMINSTER   CLOUDY    23  18  80 W9        30.30F WCI  13
PRINCE ALBERT  PTCLDY    10   7  85 W3        30.34R
REGINA         NOT AVBL
YORKTON        CLEAR     14   9  79 NW16G22   30.25R WCC1F1C2F2C3F3C4F4C5F5C6F6C7F7C8F8C9F9CaFaCbFbCcFcCdFdCe!



USA.gov is the U.S. government's official web portal to all federal, state and local government web resources and services.